Deer Park, WA
on Sunday, November 25, 2012

Sunday
Previous Day Next Day
Daily Summary
 ActualAverageRecord
Temperature
Mean Temperature °F 30°F  
Max Temperature 39°F 37°F 53°F (2004)
Min Temperature 19°F 24°F 8°F (2010)
Degree Days
Heating Degree Days 36 34  
Month to date heating degree days 677 758  
Since 1 July heating degree days 1589 1826  
Cooling Degree Days 0 0  
Month to date cooling degree days 0 0  
Year to date cooling degree days 232 187  
Moisture
Dew Point 27°F   
Average Humidity 82    
Maximum Humidity 100    
Minimum Humidity 64    
Precipitation
Precipitation 0.00 in 0.12 in 0.44 in (1999)
Month to date precipitation 3.55 2.73  
Year to date precipitation 23.55 18.79  
Wind
Wind Speed 2 mph   
Max Wind Speed 7 mph   
Max Gust Speed 9 mph   
Visibility 8 miles   
Events Fog   

Key: T is trace of precipitation, MM is missing value
Source: NWS Daily Summary
Time(PST)TemperatureDew PointHumidity Pressure Visibility Wind DirectionWind SpeedGust SpeedPrecipitationEvents Conditions
12:53 AM 28.9°F 28.9°F 100% 30.15 in 0.2 miles Calm Calm - N/A Fog Light Freezing Fog
1:03 AM 30.2°F 30.2°F 100% 30.10 in 0.8 miles Calm Calm - N/A   Overcast
1:09 AM 30.2°F 30.2°F 100% 30.10 in 2.0 miles Calm Calm - N/A   Overcast
1:16 AM 30.2°F 30.2°F 100% 30.10 in 1.5 miles Calm Calm - N/A   Overcast
1:23 AM 30.2°F 30.2°F 100% 30.11 in 3.0 miles Calm Calm - N/A   Overcast
1:44 AM 30.2°F 30.2°F 100% 30.11 in 6.0 miles Calm Calm - N/A   Overcast
1:53 AM 30.9°F 30.9°F 100% 30.16 in 6.0 miles Calm Calm - N/A   Overcast
2:53 AM 30.9°F 30.9°F 100% 30.16 in 7.0 miles Calm Calm - N/A   Overcast
3:21 AM 30.2°F 28.4°F 93% 30.12 in 9.0 miles WSW 3.5 mph - N/A   Overcast
3:39 AM 30.2°F 28.4°F 93% 30.12 in 9.0 miles Calm Calm - N/A   Overcast
3:53 AM 30.0°F 30.0°F 100% 30.18 in 9.0 miles Calm Calm - N/A   Overcast
4:00 AM 30.2°F 30.2°F 100% 30.12 in 9.0 miles Calm Calm - N/A   Overcast
4:13 AM 30.2°F 30.2°F 100% 30.13 in 9.0 miles Calm Calm - N/A   Overcast
4:43 AM 28.4°F 28.4°F 100% 30.13 in 10.0 miles SW 3.5 mph - N/A   Overcast
4:53 AM 28.9°F 28.0°F 96% 30.20 in 10.0 miles West 3.5 mph - N/A   Overcast
5:11 AM 28.4°F 28.4°F 100% 30.14 in 10.0 miles Calm Calm - N/A   Overcast
5:53 AM 28.9°F 28.9°F 100% 30.22 in 10.0 miles Calm Calm - N/A   Overcast
6:48 AM 28.4°F 28.4°F 100% 30.17 in 10.0 miles Calm Calm - N/A   Overcast
6:53 AM 28.9°F 28.0°F 96% 30.24 in 10.0 miles Calm Calm - N/A   Overcast
7:49 AM 26.6°F 26.6°F 100% 30.18 in 10.0 miles SW 3.5 mph - N/A   Scattered Clouds
7:53 AM 27.0°F 26.1°F 96% 30.27 in 10.0 miles SW 3.5 mph - N/A   Partly Cloudy
8:27 AM 28.4°F 28.4°F 100% 30.20 in 10.0 miles Calm Calm - N/A   Mostly Cloudy
8:53 AM 30.0°F 28.9°F 96% 30.27 in 10.0 miles Calm Calm - N/A   Overcast
9:53 AM 32.0°F 30.9°F 96% 30.29 in 10.0 miles West 3.5 mph - N/A   Overcast
10:53 AM 32.0°F 30.9°F 96% 30.30 in 10.0 miles Calm Calm - N/A   Overcast
11:06 AM 33.8°F 30.2°F 87% 30.23 in 10.0 miles Calm Calm - N/A   Overcast
11:53 AM 35.1°F 30.0°F 82% 30.30 in 10.0 miles North 4.6 mph - N/A   Mostly Cloudy
12:33 PM 35.6°F 30.2°F 81% 30.24 in 10.0 miles NW 5.8 mph - N/A   Scattered Clouds
12:53 PM 36.0°F 28.9°F 76% 30.30 in 10.0 miles WNW 3.5 mph - N/A   Partly Cloudy
1:51 PM 37.4°F 28.4°F 70% 30.24 in 10.0 miles Calm Calm - N/A   Mostly Cloudy
1:53 PM 37.9°F 28.9°F 70% 30.30 in 10.0 miles WNW 4.6 mph - N/A   Mostly Cloudy
2:12 PM 37.4°F 28.4°F 70% 30.24 in 10.0 miles Calm Calm - N/A   Scattered Clouds
2:53 PM 39.0°F 28.9°F 67% 30.31 in 10.0 miles Calm Calm - N/A   Clear
3:53 PM 34.0°F 28.9°F 82% 30.32 in 10.0 miles Calm Calm - N/A   Clear
4:53 PM 27.0°F 26.1°F 96% 30.35 in 10.0 miles Calm Calm - N/A   Partly Cloudy
5:53 PM 25.0°F 25.0°F 100% 30.36 in 10.0 miles Calm Calm - N/A   Clear
6:25 PM 24.8°F 23.0°F 93% 30.29 in 1.8 miles NW 3.5 mph - N/A   Clear
6:34 PM 24.8°F 24.8°F 100% 30.29 in 4.0 miles NW 3.5 mph - N/A   Clear
6:53 PM 25.0°F 24.1°F 96% 30.38 in 10.0 miles WNW 3.5 mph - N/A   Clear
7:53 PM 23.0°F 21.9°F 96% 30.38 in 10.0 miles NE 3.5 mph - N/A   Clear
8:53 PM 24.1°F 23.0°F 96% 30.39 in 7.0 miles Calm Calm - N/A   Clear
9:22 PM 21.2°F 21.2°F 100% 30.31 in 8.0 miles Calm Calm - N/A   Partly Cloudy
9:34 PM 23.0°F 19.4°F 86% 30.31 in 9.0 miles Calm Calm - N/A   Mostly Cloudy
9:51 PM 19.4°F 19.4°F 100% 30.31 in 1.5 miles Calm Calm - N/A   Overcast
9:53 PM 19.9°F 19.0°F 96% 30.40 in 1.0 miles Calm Calm - N/A   Mist
10:00 PM 21.2°F 19.4°F 93% 30.32 in 0.8 miles Calm Calm - N/A   Mist
10:07 PM 21.2°F 19.4°F 93% 30.32 in 2.0 miles NW 4.6 mph - N/A   Mostly Cloudy
10:16 PM 21.2°F 21.2°F 100% 30.31 in 10.0 miles Calm Calm - N/A   Scattered Clouds
10:53 PM 21.0°F 19.9°F 96% 30.40 in 10.0 miles North 3.5 mph - N/A   Partly Cloudy
11:53 PM 21.9°F 19.9°F 92% 30.40 in 10.0 miles North 3.5 mph - N/A   Clear
Moon Phase
Nov. 25 Nov. 28 Dec. 06 Dec. 13 Dec. 20
Sunrise:07:11 AM (PST) Moon Rise:02:28 PM (PST)11/25
Sunset:04:02 PM (PST) Moon Set:04:21 AM (PST)11/25

Copyright © 2014 The Weather Underground, Inc.